Weather History for Skagway, AK

Change the Weather History Date:

Sunday, June 22, 2014

  Actual Average Record
Temperature  
Mean Temperature 52 °F -  
Max Temperature 55 °F 63 °F 82 °F (1997)
Min Temperature 50 °F 47 °F 38 °F (1982)
Degree Days  
Heating Degree Days 13    
Growing Degree Days 2 (Base 50)    
Moisture  
Dew Point 48 °F    
Average Humidity 86    
Maximum Humidity 93    
Minimum Humidity 71    
Precipitation  
Precipitation 0.18 in - - ()
Sea Level Pressure  
Sea Level Pressure 29.90 in    
Wind  
Wind Speed 3 mph (SW)    
Max Wind Speed 14 mph    
Max Gust Speed 18 mph    
Visibility 8 miles    
Events Rain    
Averages and records for this station are not official NWS values.
T = Trace of Precipitation, MM = Missing Value Source: NWS Daily Summary

Daily Weather History Graph

Daily Weather History Graph

Search for Another Location

Airport:

Trip Planner

Search our weather history database for the weather conditions in past years. The results will help you decide how hot, cold, wet, or windy it might be!

Date:

Astronomy

Jun. 22, 2014 Rise Set
Actual Time 3:43 AM AKDT 10:23 PM AKDT
Civil Twilight 2:09 AM AKDT 11:57 PM AKDT
Nautical Twilight Sun does not rise Sun does not rise
Astronomical Twilight Sun does not rise Sun does not rise
Moon 1:41 AM AKDT (6/22) 5:16 PM AKDT (6/22)
Length of Visible Light 21h 47m
Length of Day
18h 39m
Waning Crescent, 19% of the Moon is Illuminated
Jun 22
Waning Crescent
Jun 27
New
Jul 5
First Quarter
Jul 12
Full
Jul 18
Last Quarter

Hourly Weather History & Observations

Time (AKDT) Temp. Dew Point Humidity Pressure Visibility Wind Dir Wind Speed Gust Speed Precip Events Conditions
12:53 AM 52.0 °F 43.0 °F 71% 29.89 in 10.0 mi Calm Calm - N/A   Overcast
1:53 AM 50.0 °F 43.0 °F 77% 29.86 in 10.0 mi Calm Calm - N/A   Overcast
2:53 AM 50.0 °F 44.1 °F 80% 29.86 in 10.0 mi NNE 4.6 mph - N/A   Overcast
3:53 AM 51.1 °F 44.1 °F 77% 29.84 in 10.0 mi Calm Calm - N/A   Overcast
4:53 AM 50.0 °F 44.1 °F 80% 29.81 in 10.0 mi NNE 3.5 mph - N/A   Partly Cloudy
5:53 AM 51.1 °F 45.0 °F 80% 29.81 in 10.0 mi ENE 3.5 mph - N/A   Overcast
6:53 AM 50.0 °F 44.1 °F 80% 29.81 in 10.0 mi WSW 6.9 mph - N/A   Overcast
7:53 AM 52.0 °F 46.9 °F 83% 29.80 in 10.0 mi SSW 5.8 mph - 0.00 in Rain Light Rain
8:53 AM 51.1 °F 46.9 °F 86% 29.81 in 10.0 mi SW 5.8 mph - 0.00 in   Overcast
9:53 AM 52.0 °F 48.0 °F 86% 29.83 in 10.0 mi SSW 11.5 mph - 0.00 in Rain Light Rain
10:53 AM 53.1 °F 48.0 °F 83% 29.87 in 10.0 mi SSW 12.7 mph 18.4 mph 0.00 in Rain Light Rain
11:53 AM 53.1 °F 48.9 °F 86% 29.89 in 10.0 mi SSW 8.1 mph - 0.01 in Rain Light Rain
12:53 PM 51.1 °F 48.0 °F 89% 29.91 in 8.0 mi SW 13.8 mph - 0.02 in Rain Light Rain
1:53 PM 52.0 °F 48.0 °F 86% 29.94 in 10.0 mi SW 10.4 mph - 0.02 in Rain Light Rain
2:53 PM 53.1 °F 50.0 °F 89% 29.94 in 6.0 mi SW 9.2 mph - 0.04 in Rain Light Rain
3:53 PM 53.1 °F 48.9 °F 86% 29.96 in 6.0 mi SW 8.1 mph - 0.03 in Rain Light Rain
4:53 PM 54.0 °F 51.1 °F 90% 29.94 in 10.0 mi Calm Calm - 0.02 in Rain Light Rain
5:53 PM 53.1 °F 48.9 °F 86% 29.96 in 10.0 mi Calm Calm - 0.01 in Rain Light Rain
6:53 PM 53.1 °F 48.9 °F 86% 29.94 in 10.0 mi Calm Calm - 0.01 in Rain Light Rain
7:53 PM 54.0 °F 50.0 °F 86% 29.95 in 10.0 mi Calm Calm - 0.00 in   Overcast
8:53 PM 53.1 °F 50.0 °F 89% 29.93 in 10.0 mi Calm Calm - 0.01 in Rain Light Rain
10:53 PM 52.0 °F 50.0 °F 93% 29.93 in 10.0 mi Calm Calm - 0.00 in Rain Light Rain
11:10 PM 52.0 °F 50.0 °F 93% 29.95 in 1.8 mi Calm Calm - 0.01 in Rain Light Rain
11:14 PM 52.0 °F 50.0 °F 93% 29.95 in 1.2 mi Calm Calm - 0.01 in Rain Light Rain
11:25 PM 52.0 °F 50.0 °F 93% 29.93 in 1.5 mi Calm Calm - 0.01 in   Overcast
11:27 PM 52.0 °F 50.0 °F 93% 29.93 in 3.0 mi Calm Calm - 0.01 in   Overcast
11:53 PM 52.0 °F 50.0 °F 93% 29.93 in 10.0 mi Calm Calm - 0.01 in Rain Light Rain